When you browse on this site, cookies collect data to enhance your experience and personalize the content and advertising you see.
Visit our Privacy Policy to learn more. By continuing to use the site, you agree to this use of cookies and data.
  • In Hungary
  • List of Countries
  • For 7 days
  • Water Temperature
  • Satellite Maps
  • Weather Map
  • News
  • Weather Widgets
  • user-avatar
    Login

    Hourly Weather Siedliska

    Today, 25 May, Saturday

    Time Temperature Precipitation Wind Pressure Humidity
    00:00 +12°C° 0 mm 2 mps 734 mmHg 91%
    01:00 +12°C° 0 mm 2 mps 734 mmHg 93%
    02:00 +10°C° 0 mm 2 mps 734 mmHg 93%
    03:00 +10°C° 0 mm 2 mps 734 mmHg 93%
    04:00 +11°C° 0 mm 1 mps 734 mmHg 93%
    05:00 +12°C° 0 mm 2 mps 734 mmHg 87%
    06:00 +14°C° 0 mm 2 mps 735 mmHg 82%
    07:00 +16°C° 0 mm 3 mps 735 mmHg 73%
    08:00 +17°C° 0 mm 3 mps 735 mmHg 67%
    09:00 +18°C° 0 mm 3 mps 735 mmHg 60%
    10:00 +20°C° 0 mm 3 mps 735 mmHg 53%
    11:00 +20°C° 0 mm 3 mps 735 mmHg 52%
    12:00 +21°C° 0 mm 4 mps 735 mmHg 51%
    13:00 +22°C° 0 mm 4 mps 735 mmHg 50%
    14:00 +22°C° 0 mm 4 mps 735 mmHg 53%
    15:00 +21°C° 0 mm 4 mps 734 mmHg 57%
    16:00 +21°C° 0 mm 4 mps 734 mmHg 60%
    17:00 +20°C° 0.2 mm 3 mps 734 mmHg 67%
    18:00 +18°C° 0.2 mm 3 mps 734 mmHg 73%
    19:00 +17°C° 0.2 mm 2 mps 734 mmHg 80%
    20:00 +16°C° 0 mm 2 mps 735 mmHg 83%
    21:00 +15°C° 0 mm 2 mps 735 mmHg 85%
    22:00 +14°C° 0 mm 1 mps 735 mmHg 88%
    23:00 +13°C° 0 mm 1 mps 735 mmHg 89%

    Tomorrow, 26 May, Sunday

    Time Temperature Precipitation Wind Pressure Humidity
    00:00 +13°C° 0 mm 1 mps 736 mmHg 89%
    01:00 +12°C° 0 mm 1 mps 736 mmHg 90%
    02:00 +12°C° 0 mm 1 mps 736 mmHg 91%
    03:00 +12°C° 0 mm 1 mps 736 mmHg 91%
    04:00 +11°C° 0 mm 1 mps 736 mmHg 92%
    05:00 +13°C° 0 mm 1 mps 736 mmHg 88%
    06:00 +15°C° 0 mm 1 mps 736 mmHg 84%
    07:00 +16°C° 0 mm 2 mps 736 mmHg 81%
    08:00 +17°C° 0.2 mm 2 mps 736 mmHg 76%
    09:00 +19°C° 0.2 mm 3 mps 736 mmHg 72%
    10:00 +20°C° 0.2 mm 3 mps 736 mmHg 68%
    11:00 +20°C° 0.2 mm 4 mps 736 mmHg 66%
    12:00 +21°C° 0.2 mm 4 mps 735 mmHg 64%
    13:00 +21°C° 0.2 mm 4 mps 735 mmHg 62%
    14:00 +22°C° 0 mm 4 mps 735 mmHg 60%
    15:00 +22°C° 0 mm 3 mps 735 mmHg 59%
    16:00 +22°C° 0 mm 3 mps 735 mmHg 57%
    17:00 +21°C° 0.1 mm 2 mps 735 mmHg 64%
    18:00 +19°C° 0.1 mm 2 mps 734 mmHg 71%
    19:00 +19°C° 0.1 mm 1 mps 734 mmHg 78%
    20:00 +18°C° 0 mm 1 mps 734 mmHg 80%
    21:00 +16°C° 0 mm 1 mps 735 mmHg 83%
    22:00 +15°C° 0 mm 1 mps 735 mmHg 86%
    23:00 +14°C° 0 mm 1 mps 735 mmHg 88%

    Day after tomorrow, 27 May, Monday

    Time Temperature Precipitation Wind Pressure Humidity
    00:00 +14°C° 0 mm 2 mps 735 mmHg 90%
    01:00 +14°C° 0 mm 2 mps 735 mmHg 92%
    02:00 +13°C° 0 mm 2 mps 734 mmHg 93%
    03:00 +13°C° 0 mm 2 mps 734 mmHg 93%
    04:00 +13°C° 0 mm 2 mps 734 mmHg 94%
    05:00 +15°C° 0 mm 2 mps 734 mmHg 89%
    06:00 +16°C° 0 mm 3 mps 734 mmHg 84%
    07:00 +18°C° 0 mm 3 mps 734 mmHg 80%
    08:00 +20°C° 0 mm 3 mps 734 mmHg 74%
    09:00 +21°C° 0 mm 3 mps 734 mmHg 67%
    10:00 +23°C° 0 mm 4 mps 734 mmHg 61%
    11:00 +23°C° 0.4 mm 4 mps 734 mmHg 62%
    12:00 +23°C° 0.4 mm 4 mps 734 mmHg 63%
    13:00 +23°C° 0.4 mm 4 mps 734 mmHg 64%
    14:00 +23°C° 0.3 mm 4 mps 734 mmHg 66%
    15:00 +23°C° 0.3 mm 4 mps 733 mmHg 69%
    16:00 +22°C° 0.3 mm 4 mps 733 mmHg 71%
    17:00 +21°C° 0 mm 3 mps 733 mmHg 75%
    18:00 +20°C° 0 mm 3 mps 733 mmHg 79%
    19:00 +19°C° 0 mm 2 mps 733 mmHg 82%
    20:00 +18°C° 0 mm 2 mps 733 mmHg 83%
    21:00 +18°C° 0 mm 2 mps 733 mmHg 85%
    22:00 +18°C° 0 mm 1 mps 733 mmHg 86%
    23:00 +18°C° 0 mm 1 mps 733 mmHg 87%

    28 May, Tuesday

    Time Temperature Precipitation Wind Pressure Humidity
    00:00 +16°C° 0 mm 1 mps 732 mmHg 88%
    01:00 +16°C° 0 mm 1 mps 732 mmHg 89%
    02:00 +16°C° 0.6 mm 1 mps 732 mmHg 91%
    03:00 +16°C° 0.6 mm 1 mps 731 mmHg 93%
    04:00 +16°C° 0.6 mm 1 mps 731 mmHg 95%
    05:00 +18°C° 0.2 mm 1 mps 731 mmHg 93%
    06:00 +18°C° 0.2 mm 2 mps 731 mmHg 91%
    07:00 +19°C° 0.2 mm 2 mps 731 mmHg 89%
    08:00 +20°C° 0.5 mm 2 mps 730 mmHg 83%
    09:00 +22°C° 0.5 mm 3 mps 730 mmHg 77%
    10:00 +24°C° 0.5 mm 3 mps 730 mmHg 72%
    11:00 +24°C° 0.2 mm 3 mps 730 mmHg 69%
    12:00 +25°C° 0.2 mm 3 mps 729 mmHg 67%
    13:00 +25°C° 0.2 mm 4 mps 729 mmHg 65%
    14:00 +25°C° 0.4 mm 3 mps 729 mmHg 67%
    15:00 +25°C° 0.4 mm 3 mps 728 mmHg 69%
    16:00 +24°C° 0.4 mm 3 mps 728 mmHg 71%
    17:00 +23°C° 0.9 mm 2 mps 728 mmHg 76%
    18:00 +20°C° 0.9 mm 2 mps 728 mmHg 81%
    19:00 +20°C° 0.9 mm 1 mps 727 mmHg 86%
    20:00 +19°C° 0.4 mm 1 mps 727 mmHg 88%
    21:00 +18°C° 0.4 mm 1 mps 727 mmHg 89%
    22:00 +16°C° 0.4 mm 1 mps 727 mmHg 91%
    23:00 +16°C° 0.9 mm 2 mps 727 mmHg 92%

    29 May, Wednesday

    Time Temperature Precipitation Wind Pressure Humidity
    00:00 +16°C° 0.9 mm 2 mps 728 mmHg 92%
    01:00 +16°C° 0.9 mm 2 mps 728 mmHg 93%
    02:00 +15°C° 0 mm 2 mps 728 mmHg 94%
    03:00 +14°C° 0 mm 3 mps 728 mmHg 96%
    04:00 +13°C° 0 mm 3 mps 728 mmHg 97%
    05:00 +13°C° 0.2 mm 3 mps 729 mmHg 96%
    06:00 +14°C° 0.2 mm 4 mps 729 mmHg 94%
    07:00 +14°C° 0.2 mm 5 mps 730 mmHg 92%
    08:00 +13°C° 0 mm 5 mps 730 mmHg 91%
    09:00 +13°C° 0 mm 5 mps 731 mmHg 90%
    10:00 +13°C° 0 mm 5 mps 731 mmHg 88%
    11:00 +13°C° 0 mm 5 mps 732 mmHg 86%
    12:00 +13°C° 0 mm 6 mps 732 mmHg 83%
    13:00 +13°C° 0 mm 6 mps 733 mmHg 80%
    14:00 +13°C° 0 mm 6 mps 733 mmHg 81%
    15:00 +11°C° 0 mm 6 mps 734 mmHg 81%
    16:00 +11°C° 0 mm 6 mps 734 mmHg 81%
    17:00 +10°C° 0 mm 5 mps 735 mmHg 82%
    18:00 +10°C° 0 mm 5 mps 735 mmHg 82%
    19:00 +9°C° 0 mm 5 mps 736 mmHg 83%
    20:00 +10°C° 0 mm 4 mps 736 mmHg 81%
    21:00 +10°C° 0 mm 4 mps 737 mmHg 78%
    22:00 +10°C° 0 mm 4 mps 738 mmHg 76%
    23:00 +8°C° 0.3 mm 4 mps 738 mmHg 77%

    30 May, Thursday

    Time Temperature Precipitation Wind Pressure Humidity
    00:00 +7°C° 0.3 mm 4 mps 738 mmHg 79%
    01:00 +7°C° 0.3 mm 4 mps 739 mmHg 80%
    02:00 +6°C° 1 mm 4 mps 739 mmHg 83%
    03:00 +6°C° 1 mm 4 mps 739 mmHg 86%
    04:00 +5°C° 1 mm 4 mps 740 mmHg 89%
    05:00 +5°C° 0.6 mm 4 mps 740 mmHg 89%
    06:00 +6°C° 0.6 mm 4 mps 741 mmHg 90%
    07:00 +7°C° 0.6 mm 3 mps 741 mmHg 90%
    08:00 +7°C° 0.1 mm 3 mps 742 mmHg 89%
    09:00 +8°C° 0.1 mm 3 mps 742 mmHg 87%
    10:00 +8°C° 0.1 mm 3 mps 742 mmHg 86%
    11:00 +9°C° 0 mm 3 mps 742 mmHg 83%
    12:00 +9°C° 0 mm 3 mps 742 mmHg 80%
    13:00 +10°C° 0 mm 3 mps 742 mmHg 77%
    14:00 +12°C° 0 mm 2 mps 742 mmHg 72%
    15:00 +13°C° 0 mm 2 mps 742 mmHg 67%
    16:00 +13°C° 0 mm 2 mps 742 mmHg 62%
    17:00 +13°C° 0 mm 2 mps 742 mmHg 66%
    18:00 +12°C° 0 mm 1 mps 741 mmHg 69%
    19:00 +11°C° 0 mm 1 mps 741 mmHg 73%
    20:00 +10°C° 0 mm 1 mps 741 mmHg 75%
    21:00 +9°C° 0 mm 1 mps 741 mmHg 78%
    22:00 +7°C° 0 mm 0 mps 741 mmHg 80%
    23:00 +8°C° 0 mm 1 mps 741 mmHg 82%
    Show more